Content
SEND FEEDBACK

Daily
Averages
Monthly
Summary
United States of America

SOUTHPORT, NORTH CAROLINA


Home > North America > United States > North Carolina
Elevation: 38 feet     Latitude: 34 00N     Longitude: 078 01W

WEATHER
 
SELECT A DAY
Number of Records: 148,453;   Date Range: 8/21/01 - 12/26/14
 
SHARE

PRINT THIS DATA

[ ← Previous Day ]
WEATHER ALMANAC - APRIL 1, 2013
[ Next Day → ]
[ °C ]   °F
Weather ElementAverageHighLow
Temperature57.3 °F64.2 °F (3:55 pm)53.4 °F (11:55 pm)
Dewpoint54.4 °F56.7 °F (3:55 pm)52 °F (11:55 pm)
Humidity90.2 %97 % (9:35 pm)76 % (3:55 pm)
Barometer29.89 in29.93 in (10:55 am)29.85 in (5:15 am)
Wind Speed7.1 mph13.8 mph (2:35 pm)
Wind Gust19.6 mph (4:15 am)
Weather ElementAverage
Visibility7.7 mi
Wind DirectionSSW (195.2 °)

Weather ElementTotal
Precipitation0.21 in
Heating Degree Days6.2 (Base 65)
Growing Degree Days8.8 (Base 50)
Averaged from 69 records on April 1, 2013
WEATHER CONDITIONS BREAKOUT
WIND DIRECTION BREAKOUT
WEATHER BY HOUR - APRIL 1, 2013
[ °C ]   °F
Local TimeTemperatureDewpointHumidityBarometerVisibilityWind DirectionWind SpeedGust SpeedPrecipitationEventsConditions
12:55 AM56.3 °F54.0 °F92 %29.92 in5.0 miSW (220°)9.2 mph0.05 inRainLight Rain
1:15 AM56.3 °F53.6 °F91 %29.92 in7.0 miSW (230°)8.1 mphScattered Clouds
1:35 AM56.3 °F53.8 °F91 %29.91 in7.0 miSW (230°)8.1 mphScattered Clouds
1:55 AM56.3 °F53.4 °F90 %29.91 in7.0 miWSW (240°)10.4 mphScattered Clouds
2:15 AM56.3 °F53.6 °F91 %29.90 in7.0 miWSW (240°)10.4 mphRainLight Rain
2:35 AM56.3 °F53.6 °F91 %29.90 in7.0 miWSW (240°)9.2 mphRainLight Rain
2:55 AM56.3 °F53.6 °F91 %29.90 in7.0 miWSW (240°)9.2 mph0.01 inRainLight Rain
3:15 AM55.8 °F53.6 °F92 %29.89 in7.0 miSW (230°)11.5 mph16.1 mphClear
3:35 AM55.8 °F53.8 °F93 %29.89 in7.0 miWest (260°)10.4 mphRainLight Rain
3:55 AM55.8 °F54.0 °F94 %29.89 in7.0 miWest (260°)11.5 mph18.4 mphRainLight Rain
4:15 AM55.6 °F54.0 °F94 %29.89 in4.0 miWest (260°)11.5 mph19.6 mph0.02 inRainLight Rain
4:35 AM56.3 °F54.5 °F94 %29.89 in7.0 miWSW (240°)10.4 mph0.02 inRainLight Rain
4:55 AM55.8 °F54.1 °F94 %29.88 in5.0 miWSW (250°)8.1 mph0.03 inRainRain
5:15 AM56.5 °F54.5 °F93 %29.85 in7.0 miWest (280°)8.1 mph0.01 inRainLight Rain
5:35 AM56.8 °F54.5 °F92 %29.86 in10.0 miWest (270°)6.9 mph0.01 inClear
5:55 AM56.7 °F54.1 °F91 %29.86 in10.0 miWSW (240°)5.8 mph0.01 inClear
6:15 AM55.9 °F54.0 °F93 %29.88 in7.0 miSW (220°)8.1 mphClear
6:35 AM55.4 °F53.8 °F94 %29.88 in7.0 miWSW (250°)6.9 mphClear
6:55 AM55.8 °F54.3 °F95 %29.88 in10.0 miSW (230°)6.9 mphScattered Clouds
7:15 AM54.7 °F53.6 °F96 %29.89 in5.0 miSSW (210°)6.9 mphScattered Clouds
7:35 AM54.5 °F53.4 °F96 %29.89 in5.0 miSW (230°)5.8 mphScattered Clouds
7:55 AM55.0 °F53.8 °F96 %29.90 in7.0 miWSW (240°)6.9 mphClear
8:15 AM55.6 °F54.0 °F94 %29.91 in7.0 miWSW (250°)6.9 mphScattered Clouds
8:35 AM55.8 °F54.1 °F94 %29.91 in7.0 miWSW (250°)8.1 mphScattered Clouds
8:55 AM55.2 °F53.6 °F94 %29.92 in5.0 miWSW (250°)6.9 mphMostly Cloudy
9:15 AM54.9 °F53.6 °F96 %29.92 in4.0 miWest (270°)6.9 mph0.01 inRainRain
9:35 AM55.8 °F54.5 °F96 %29.90 in5.0 miCalm0.02 inRainLight Rain
9:55 AM57.2 °F55.6 °F94 %29.91 in5.0 miSSW (200°)4.6 mph0.02 inClear
10:15 AM58.3 °F55.9 °F92 %29.92 in7.0 miSW (230°)6.9 mphClear
10:35 AM57.9 °F55.2 °F91 %29.92 in7.0 miSW (230°)9.2 mphClear
10:55 AM56.7 °F54.1 °F91 %29.93 in7.0 miWest (260°)10.4 mphScattered Clouds
11:15 AM57.2 °F54.5 °F91 %29.93 in7.0 miWest (260°)8.1 mphMostly Cloudy
11:35 AM58.1 °F55.0 °F90 %29.93 in10.0 miWSW (240°)9.2 mphScattered Clouds
11:55 AM57.6 °F54.5 °F90 %29.92 in10.0 miWSW (240°)8.1 mphScattered Clouds
12:15 PM57.7 °F55.4 °F92 %29.92 in7.0 miWSW (240°)6.9 mphScattered Clouds
12:35 PM56.5 °F54.3 °F92 %29.91 in5.0 miWSW (250°)5.8 mphMostly Cloudy
12:55 PM58.3 °F55.2 °F90 %29.91 in10.0 miSW (230°)8.1 mphScattered Clouds
1:15 PM61.0 °F55.8 °F83 %29.90 in10.0 miWSW (240°)11.5 mphScattered Clouds
1:35 PM61.7 °F56.1 °F82 %29.89 in10.0 miSW (230°)12.7 mphScattered Clouds
1:55 PM61.5 °F55.8 °F81 %29.89 in10.0 miWSW (240°)11.5 mphScattered Clouds
2:15 PM62.2 °F56.1 °F80 %29.88 in10.0 miSW (230°)10.4 mphScattered Clouds
2:35 PM62.6 °F56.1 °F79 %29.87 in10.0 miWSW (240°)13.8 mphClear
2:55 PM60.8 °F55.6 °F83 %29.87 in10.0 miSW (230°)10.4 mphMostly Cloudy
3:15 PM60.4 °F55.4 °F83 %29.86 in10.0 miWSW (250°)9.2 mphOvercast
3:35 PM63.1 °F56.5 °F79 %29.85 in10.0 miWest (260°)10.4 mph16.1 mphScattered Clouds
3:55 PM64.2 °F56.7 °F76 %29.85 in10.0 miWSW (240°)12.7 mphClear
4:15 PM64.0 °F56.3 °F76 %29.85 in10.0 miWSW (240°)12.7 mph16.1 mphClear
4:35 PM63.0 °F55.9 °F78 %29.85 in10.0 miSW (230°)10.4 mphClear
4:55 PM62.8 °F55.9 °F78 %29.85 in10.0 miSW (230°)9.2 mphClear
5:15 PM61.9 °F55.6 °F80 %29.85 in10.0 miSW (230°)9.2 mphClear
5:35 PM61.5 °F55.6 °F81 %29.85 in10.0 miSW (230°)9.2 mphClear
6:15 PM60.1 °F55.0 °F83 %29.86 in10.0 miWSW (240°)9.2 mphClear
6:35 PM60.1 °F55.0 °F83 %29.86 in10.0 miWSW (250°)8.1 mphClear
6:55 PM58.8 °F54.7 °F86 %29.86 in10.0 miWSW (240°)6.9 mphClear
7:15 PM57.7 °F54.5 °F89 %29.87 in10.0 miWSW (240°)5.8 mphClear
7:35 PM56.5 °F54.1 °F92 %29.87 in7.0 miWSW (240°)5.8 mphClear
7:55 PM55.9 °F54.1 °F94 %29.88 in7.0 miSW (230°)4.6 mphClear
8:15 PM55.4 °F53.8 °F94 %29.88 in7.0 miCalmClear
8:35 PM55.0 °F53.6 °F95 %29.89 in7.0 miCalmScattered Clouds
8:55 PM55.0 °F53.8 °F96 %29.89 in7.0 miCalmScattered Clouds
9:15 PM54.5 °F53.2 °F96 %29.90 in5.0 miCalmClear
9:35 PM54.3 °F53.4 °F97 %29.90 in5.0 miCalmClear
9:55 PM54.5 °F53.6 °F97 %29.91 in7.0 miCalmScattered Clouds
10:15 PM54.7 °F53.6 °F96 %29.91 in7.0 miCalmScattered Clouds
10:35 PM54.5 °F53.4 °F96 %29.92 in7.0 miCalmClear
10:55 PM54.1 °F52.9 °F95 %29.92 in7.0 miCalmClear
11:15 PM53.8 °F52.7 °F96 %29.92 in7.0 miCalmClear
11:35 PM53.6 °F52.7 °F97 %29.92 in7.0 miCalmClear
11:55 PM53.4 °F52.0 °F95 %29.92 in7.0 miCalmClear
Hourly data recorded from KSUT, located miles away from Southport, North Carolina







STORIES FROM OUR PARTNERS